contact:dominique.lefevre@mio.osupytheas.fr, maurice.libes@osupytheas.fr, didier.mallarino@osupytheas.fr
Project:EMSO http://www.emso-fr.org/EMSO-France
Depth: 2436.0 m
Title:EMSO Ligure Ouest : Data MII capteur MICROCAT
DateTime_Computer,Latitude,Longitude,Temperature,Conductivity,Pressure,DateTime_Instrument
DateTime_Computer,Latitude,Longitude,degC,S m-1,dbar,DateTime_Instrument
2021-10-19T00:02:13Z,42.805,6.029,13.2991,4.60006,2470.413,2021-10-19T02:03:37Z
2021-10-19T00:05:16Z,42.805,6.029,13.2987,4.60008,2470.46,2021-10-19T02:06:40Z
2021-10-19T00:08:20Z,42.805,6.029,13.2991,4.60006,2470.413,2021-10-19T02:09:43Z
2021-10-19T00:11:23Z,42.805,6.029,13.2990,4.60008,2470.45,2021-10-19T02:12:46Z
2021-10-19T00:14:26Z,42.805,6.029,13.2991,4.60006,2470.423,2021-10-19T02:15:50Z
2021-10-19T00:17:29Z,42.805,6.029,13.2987,4.60006,2470.437,2021-10-19T02:18:53Z
2021-10-19T00:20:32Z,42.805,6.029,13.2989,4.60006,2470.45,2021-10-19T02:21:56Z
2021-10-19T00:23:35Z,42.805,6.029,13.2991,4.60006,2470.413,2021-10-19T02:24:59Z
2021-10-19T00:26:38Z,42.805,6.029,13.2988,4.60006,2470.437,2021-10-19T02:28:02Z
2021-10-19T00:29:41Z,42.805,6.029,13.2990,4.60005,2470.474,2021-10-19T02:31:05Z
2021-10-19T00:32:45Z,42.805,6.029,13.2990,4.60005,2470.437,2021-10-19T02:34:08Z
2021-10-19T00:35:48Z,42.805,6.029,13.2989,4.60007,2470.483,2021-10-19T02:37:11Z
2021-10-19T00:38:51Z,42.805,6.029,13.2989,4.60009,2470.437,2021-10-19T02:40:15Z
2021-10-19T00:41:54Z,42.805,6.029,13.2990,4.60005,2470.427,2021-10-19T02:43:18Z
2021-10-19T00:44:57Z,42.805,6.029,13.2991,4.60009,2470.474,2021-10-19T02:46:21Z
2021-10-19T00:48:00Z,42.805,6.029,13.2990,4.60008,2470.45,2021-10-19T02:49:24Z
2021-10-19T00:51:03Z,42.805,6.029,13.2991,4.60005,2470.45,2021-10-19T02:52:27Z
2021-10-19T00:54:06Z,42.805,6.029,13.2990,4.60005,2470.437,2021-10-19T02:55:30Z
2021-10-19T00:57:10Z,42.805,6.029,13.2988,4.60005,2470.39,2021-10-19T02:58:33Z
2021-10-19T01:00:13Z,42.805,6.029,13.2989,4.60005,2470.413,2021-10-19T03:01:36Z
2021-10-19T01:03:16Z,42.805,6.029,13.2986,4.60005,2470.427,2021-10-19T03:04:40Z
2021-10-19T01:06:19Z,42.805,6.029,13.2990,4.60004,2470.39,2021-10-19T03:07:43Z
2021-10-19T01:09:22Z,42.805,6.029,13.2990,4.60005,2470.45,2021-10-19T03:10:46Z
2021-10-19T01:12:25Z,42.805,6.029,13.2990,4.60006,2470.39,2021-10-19T03:13:49Z
2021-10-19T01:15:28Z,42.805,6.029,13.2984,4.60006,2470.437,2021-10-19T03:16:52Z
2021-10-19T01:18:31Z,42.805,6.029,13.2991,4.60006,2470.413,2021-10-19T03:19:55Z
2021-10-19T01:21:35Z,42.805,6.029,13.2986,4.60007,2470.437,2021-10-19T03:22:58Z
2021-10-19T01:24:38Z,42.805,6.029,13.2987,4.60004,2470.427,2021-10-19T03:26:01Z
2021-10-19T01:27:41Z,42.805,6.029,13.2990,4.60004,2470.413,2021-10-19T03:29:05Z
2021-10-19T01:30:44Z,42.805,6.029,13.2990,4.60008,2470.437,2021-10-19T03:32:08Z
2021-10-19T01:33:47Z,42.805,6.029,13.2990,4.60005,2470.404,2021-10-19T03:35:11Z
2021-10-19T01:36:50Z,42.805,6.029,13.2991,4.60005,2470.39,2021-10-19T03:38:14Z
2021-10-19T01:39:53Z,42.805,6.029,13.2990,4.60004,2470.39,2021-10-19T03:41:17Z
2021-10-19T01:42:56Z,42.805,6.029,13.2993,4.60005,2470.45,2021-10-19T03:44:20Z
2021-10-19T01:45:59Z,42.805,6.029,13.2989,4.60004,2470.45,2021-10-19T03:47:23Z
2021-10-19T01:49:03Z,42.805,6.029,13.2994,4.60005,2470.45,2021-10-19T03:50:26Z
2021-10-19T01:52:06Z,42.805,6.029,13.2987,4.60004,2470.413,2021-10-19T03:53:30Z
2021-10-19T01:55:09Z,42.805,6.029,13.2986,4.60007,2470.437,2021-10-19T03:56:33Z
2021-10-19T01:58:12Z,42.805,6.029,13.2991,4.60004,2470.437,2021-10-19T03:59:36Z
2021-10-19T02:01:15Z,42.805,6.029,13.2987,4.60006,2470.437,2021-10-19T04:02:39Z
2021-10-19T02:04:18Z,42.805,6.029,13.2990,4.60003,2470.45,2021-10-19T04:05:42Z
2021-10-19T02:07:21Z,42.805,6.029,13.2991,4.60005,2470.45,2021-10-19T04:08:45Z
2021-10-19T02:10:24Z,42.805,6.029,13.2990,4.60003,2470.437,2021-10-19T04:11:48Z
2021-10-19T02:13:28Z,42.805,6.029,13.2984,4.60004,2470.437,2021-10-19T04:14:51Z
2021-10-19T02:16:31Z,42.805,6.029,13.2990,4.60003,2470.46,2021-10-19T04:17:54Z
2021-10-19T02:19:34Z,42.805,6.029,13.2990,4.60005,2470.413,2021-10-19T04:20:58Z
2021-10-19T02:22:37Z,42.805,6.029,13.2991,4.60004,2470.474,2021-10-19T04:24:01Z
2021-10-19T02:25:40Z,42.805,6.029,13.2993,4.60006,2470.474,2021-10-19T04:27:04Z
2021-10-19T02:28:43Z,42.805,6.029,13.2989,4.60004,2470.45,2021-10-19T04:30:07Z
2021-10-19T02:31:46Z,42.805,6.029,13.2987,4.60006,2470.507,2021-10-19T04:33:10Z
2021-10-19T02:34:49Z,42.805,6.029,13.2986,4.60004,2470.46,2021-10-19T04:36:13Z
2021-10-19T02:37:53Z,42.805,6.029,13.2991,4.60004,2470.483,2021-10-19T04:39:16Z
2021-10-19T02:40:56Z,42.805,6.029,13.2990,4.60004,2470.483,2021-10-19T04:42:19Z
2021-10-19T02:43:59Z,42.805,6.029,13.2990,4.60005,2470.52,2021-10-19T04:45:23Z
2021-10-19T02:47:02Z,42.805,6.029,13.2991,4.60006,2470.474,2021-10-19T04:48:26Z
2021-10-19T02:50:05Z,42.805,6.029,13.2989,4.60008,2470.46,2021-10-19T04:51:29Z
2021-10-19T02:53:08Z,42.805,6.029,13.2990,4.60005,2470.437,2021-10-19T04:54:32Z
2021-10-19T02:56:11Z,42.805,6.029,13.2989,4.60004,2470.46,2021-10-19T04:57:35Z
2021-10-19T02:59:14Z,42.805,6.029,13.2990,4.60005,2470.437,2021-10-19T05:00:38Z
2021-10-19T03:02:18Z,42.805,6.029,13.2986,4.60003,2470.46,2021-10-19T05:03:41Z
2021-10-19T03:05:21Z,42.805,6.029,13.2989,4.60004,2470.474,2021-10-19T05:06:45Z
2021-10-19T03:08:24Z,42.805,6.029,13.2990,4.60005,2470.474,2021-10-19T05:09:48Z
2021-10-19T03:11:27Z,42.805,6.029,13.2990,4.60004,2470.437,2021-10-19T05:12:51Z
2021-10-19T03:14:30Z,42.805,6.029,13.2988,4.60005,2470.46,2021-10-19T05:15:54Z
2021-10-19T03:17:33Z,42.805,6.029,13.2990,4.60006,2470.483,2021-10-19T05:18:57Z
2021-10-19T03:20:36Z,42.805,6.029,13.2983,4.60005,2470.483,2021-10-19T05:22:00Z
2021-10-19T03:23:39Z,42.805,6.029,13.2988,4.60006,2470.483,2021-10-19T05:25:03Z
2021-10-19T03:26:43Z,42.805,6.029,13.2990,4.60006,2470.497,2021-10-19T05:28:06Z
2021-10-19T03:29:46Z,42.805,6.029,13.2990,4.60008,2470.483,2021-10-19T05:31:09Z
2021-10-19T03:32:49Z,42.805,6.029,13.2990,4.60005,2470.483,2021-10-19T05:34:13Z
2021-10-19T03:35:52Z,42.805,6.029,13.2984,4.60004,2470.507,2021-10-19T05:37:16Z
2021-10-19T03:38:55Z,42.805,6.029,13.2994,4.60004,2470.483,2021-10-19T05:40:19Z
2021-10-19T03:41:58Z,42.805,6.029,13.2991,4.60004,2470.497,2021-10-19T05:43:22Z
2021-10-19T03:45:01Z,42.805,6.029,13.2990,4.60004,2470.52,2021-10-19T05:46:25Z
2021-10-19T03:48:04Z,42.805,6.029,13.2989,4.60003,2470.507,2021-10-19T05:49:28Z
2021-10-19T03:51:08Z,42.805,6.029,13.2987,4.60005,2470.507,2021-10-19T05:52:31Z
2021-10-19T03:54:11Z,42.805,6.029,13.2991,4.60006,2470.507,2021-10-19T05:55:34Z
2021-10-19T03:57:14Z,42.805,6.029,13.2990,4.60004,2470.53,2021-10-19T05:58:38Z
2021-10-19T04:00:17Z,42.805,6.029,13.2991,4.60010,2470.483,2021-10-19T06:01:41Z
2021-10-19T04:03:20Z,42.805,6.029,13.2990,4.60004,2470.52,2021-10-19T06:04:44Z
2021-10-19T04:06:23Z,42.805,6.029,13.2992,4.60006,2470.52,2021-10-19T06:07:47Z
2021-10-19T04:09:26Z,42.805,6.029,13.2992,4.60008,2470.483,2021-10-19T06:10:50Z
2021-10-19T04:12:29Z,42.805,6.029,13.2990,4.60006,2470.553,2021-10-19T06:13:53Z
2021-10-19T04:15:33Z,42.805,6.029,13.2989,4.60005,2470.553,2021-10-19T06:16:56Z
2021-10-19T04:18:36Z,42.805,6.029,13.2988,4.60008,2470.53,2021-10-19T06:19:59Z
2021-10-19T04:21:39Z,42.805,6.029,13.2990,4.60008,2470.544,2021-10-19T06:23:03Z
2021-10-19T04:24:42Z,42.805,6.029,13.2988,4.60004,2470.507,2021-10-19T06:26:06Z
2021-10-19T04:27:45Z,42.805,6.029,13.2988,4.60003,2470.53,2021-10-19T06:29:09Z
2021-10-19T04:30:48Z,42.805,6.029,13.2986,4.60005,2470.553,2021-10-19T06:32:12Z
2021-10-19T04:33:51Z,42.805,6.029,13.2991,4.60004,2470.553,2021-10-19T06:35:15Z
2021-10-19T04:36:54Z,42.805,6.029,13.2987,4.60004,2470.53,2021-10-19T06:38:18Z
2021-10-19T04:39:57Z,42.805,6.029,13.2990,4.60006,2470.53,2021-10-19T06:41:21Z
2021-10-19T04:43:01Z,42.805,6.029,13.2987,4.60006,2470.53,2021-10-19T06:44:24Z
2021-10-19T04:46:04Z,42.805,6.029,13.2991,4.60004,2470.567,2021-10-19T06:47:28Z
2021-10-19T04:49:07Z,42.805,6.029,13.2993,4.60005,2470.577,2021-10-19T06:50:31Z
2021-10-19T04:52:10Z,42.805,6.029,13.2987,4.60005,2470.577,2021-10-19T06:53:34Z
2021-10-19T04:55:13Z,42.805,6.029,13.2988,4.60006,2470.553,2021-10-19T06:56:37Z
2021-10-19T04:58:16Z,42.805,6.029,13.2986,4.60006,2470.553,2021-10-19T06:59:40Z
2021-10-19T05:01:19Z,42.805,6.029,13.2983,4.60009,2470.553,2021-10-19T07:02:43Z
2021-10-19T05:04:22Z,42.805,6.029,13.2994,4.60006,2470.553,2021-10-19T07:05:46Z
2021-10-19T05:07:26Z,42.805,6.029,13.2987,4.60005,2470.567,2021-10-19T07:08:49Z
2021-10-19T05:10:29Z,42.805,6.029,13.2990,4.60005,2470.553,2021-10-19T07:11:52Z
2021-10-19T05:13:32Z,42.805,6.029,13.2993,4.60005,2470.614,2021-10-19T07:14:56Z
2021-10-19T05:16:35Z,42.805,6.029,13.2988,4.60006,2470.544,2021-10-19T07:17:59Z
2021-10-19T05:19:38Z,42.805,6.029,13.2991,4.60005,2470.577,2021-10-19T07:21:02Z
2021-10-19T05:22:41Z,42.805,6.029,13.2990,4.60005,2470.577,2021-10-19T07:24:05Z
2021-10-19T05:25:44Z,42.805,6.029,13.2991,4.60006,2470.567,2021-10-19T07:27:08Z
2021-10-19T05:28:47Z,42.805,6.029,13.2990,4.60009,2470.6,2021-10-19T07:30:11Z
2021-10-19T05:31:51Z,42.805,6.029,13.2992,4.60010,2470.553,2021-10-19T07:33:14Z
2021-10-19T05:34:54Z,42.805,6.029,13.2987,4.60006,2470.577,2021-10-19T07:36:18Z
2021-10-19T05:37:57Z,42.805,6.029,13.2991,4.60014,2470.6,2021-10-19T07:39:21Z
2021-10-19T05:41:00Z,42.805,6.029,13.2991,4.60010,2470.553,2021-10-19T07:42:24Z
2021-10-19T05:44:03Z,42.805,6.029,13.2991,4.60006,2470.591,2021-10-19T07:45:27Z
2021-10-19T05:47:06Z,42.805,6.029,13.2996,4.60008,2470.591,2021-10-19T07:48:30Z
2021-10-19T05:50:09Z,42.805,6.029,13.2991,4.60007,2470.567,2021-10-19T07:51:33Z
2021-10-19T05:53:12Z,42.805,6.029,13.2991,4.60009,2470.577,2021-10-19T07:54:36Z
2021-10-19T05:56:16Z,42.805,6.029,13.2990,4.60009,2470.577,2021-10-19T07:57:39Z
2021-10-19T05:59:19Z,42.805,6.029,13.2992,4.60006,2470.591,2021-10-19T08:00:42Z
2021-10-19T06:02:22Z,42.805,6.029,13.2993,4.60006,2470.591,2021-10-19T08:03:46Z
2021-10-19T06:05:25Z,42.805,6.029,13.2991,4.60007,2470.577,2021-10-19T08:06:49Z
2021-10-19T06:08:28Z,42.805,6.029,13.2989,4.60008,2470.577,2021-10-19T08:09:52Z
2021-10-19T06:11:31Z,42.805,6.029,13.2993,4.60007,2470.591,2021-10-19T08:12:55Z
2021-10-19T06:14:34Z,42.805,6.029,13.2987,4.60007,2470.577,2021-10-19T08:15:58Z
2021-10-19T06:17:37Z,42.805,6.029,13.2991,4.60010,2470.637,2021-10-19T08:19:01Z
2021-10-19T06:20:41Z,42.805,6.029,13.2991,4.60007,2470.577,2021-10-19T08:22:04Z
2021-10-19T06:23:44Z,42.805,6.029,13.2991,4.60011,2470.577,2021-10-19T08:25:07Z
2021-10-19T06:26:47Z,42.805,6.029,13.2991,4.60008,2470.577,2021-10-19T08:28:11Z
2021-10-19T06:29:50Z,42.805,6.029,13.2988,4.60008,2470.577,2021-10-19T08:31:14Z
2021-10-19T06:32:53Z,42.805,6.029,13.2988,4.60006,2470.614,2021-10-19T08:34:17Z
2021-10-19T06:35:56Z,42.805,6.029,13.2987,4.60007,2470.553,2021-10-19T08:37:20Z
2021-10-19T06:38:59Z,42.805,6.029,13.2991,4.60008,2470.553,2021-10-19T08:40:23Z
2021-10-19T06:42:02Z,42.805,6.029,13.2992,4.60007,2470.577,2021-10-19T08:43:26Z
2021-10-19T06:45:05Z,42.805,6.029,13.2992,4.60007,2470.577,2021-10-19T08:46:29Z
2021-10-19T06:48:09Z,42.805,6.029,13.2990,4.60008,2470.6,2021-10-19T08:49:32Z
2021-10-19T06:51:12Z,42.805,6.029,13.2992,4.60008,2470.591,2021-10-19T08:52:36Z
2021-10-19T06:54:15Z,42.805,6.029,13.2989,4.60008,2470.577,2021-10-19T08:55:39Z
2021-10-19T06:57:18Z,42.805,6.029,13.2990,4.60009,2470.577,2021-10-19T08:58:42Z
2021-10-19T07:00:21Z,42.805,6.029,13.2992,4.60008,2470.577,2021-10-19T09:01:45Z
2021-10-19T07:03:24Z,42.805,6.029,13.2991,4.60008,2470.577,2021-10-19T09:04:48Z
2021-10-19T07:06:27Z,42.805,6.029,13.2993,4.60010,2470.591,2021-10-19T09:07:51Z
2021-10-19T07:09:30Z,42.805,6.029,13.2992,4.60009,2470.591,2021-10-19T09:10:54Z
2021-10-19T07:12:34Z,42.805,6.029,13.2993,4.60010,2470.6,2021-10-19T09:13:57Z
2021-10-19T07:15:37Z,42.805,6.029,13.2993,4.60008,2470.6,2021-10-19T09:17:01Z
2021-10-19T07:18:40Z,42.805,6.029,13.2991,4.60008,2470.614,2021-10-19T09:20:04Z
2021-10-19T07:21:43Z,42.805,6.029,13.2991,4.60010,2470.577,2021-10-19T09:23:07Z
2021-10-19T07:24:46Z,42.805,6.029,13.2991,4.60008,2470.591,2021-10-19T09:26:10Z
2021-10-19T07:27:49Z,42.805,6.029,13.2991,4.60010,2470.591,2021-10-19T09:29:13Z
2021-10-19T07:30:52Z,42.805,6.029,13.2990,4.60008,2470.591,2021-10-19T09:32:16Z
2021-10-19T07:33:55Z,42.805,6.029,13.2990,4.60008,2470.577,2021-10-19T09:35:19Z
2021-10-19T07:36:59Z,42.805,6.029,13.2988,4.60008,2470.563,2021-10-19T09:38:22Z
2021-10-19T07:40:02Z,42.805,6.029,13.2992,4.60008,2470.553,2021-10-19T09:41:25Z
2021-10-19T07:43:05Z,42.805,6.029,13.2994,4.60010,2470.567,2021-10-19T09:44:29Z
2021-10-19T07:46:08Z,42.805,6.029,13.2989,4.60009,2470.577,2021-10-19T09:47:32Z
2021-10-19T07:49:11Z,42.805,6.029,13.2991,4.60007,2470.591,2021-10-19T09:50:35Z
2021-10-19T07:52:14Z,42.805,6.029,13.2999,4.60008,2470.577,2021-10-19T09:53:38Z
2021-10-19T07:55:17Z,42.805,6.029,13.2993,4.60008,2470.577,2021-10-19T09:56:41Z
2021-10-19T07:58:20Z,42.805,6.029,13.2991,4.60011,2470.577,2021-10-19T09:59:44Z
2021-10-19T08:01:24Z,42.805,6.029,13.2991,4.60008,2470.591,2021-10-19T10:02:47Z
2021-10-19T08:04:27Z,42.805,6.029,13.2987,4.60020,2470.553,2021-10-19T10:05:50Z
2021-10-19T08:07:30Z,42.805,6.029,13.2996,4.60010,2470.553,2021-10-19T10:08:54Z
2021-10-19T08:10:33Z,42.805,6.029,13.2991,4.60017,2470.53,2021-10-19T10:11:57Z
2021-10-19T08:13:36Z,42.805,6.029,13.2990,4.60009,2470.553,2021-10-19T10:15:00Z
2021-10-19T08:16:39Z,42.805,6.029,13.2993,4.60009,2470.567,2021-10-19T10:18:03Z
2021-10-19T08:19:42Z,42.805,6.029,13.2991,4.60009,2470.567,2021-10-19T10:21:06Z
2021-10-19T08:22:45Z,42.805,6.029,13.2991,4.60009,2470.567,2021-10-19T10:24:09Z
2021-10-19T08:25:49Z,42.805,6.029,13.2992,4.60011,2470.53,2021-10-19T10:27:12Z
2021-10-19T08:28:52Z,42.805,6.029,13.2991,4.60007,2470.591,2021-10-19T10:30:15Z
2021-10-19T08:31:55Z,42.805,6.029,13.2991,4.60008,2470.53,2021-10-19T10:33:19Z
2021-10-19T08:34:58Z,42.805,6.029,13.2995,4.60007,2470.544,2021-10-19T10:36:22Z
2021-10-19T08:38:01Z,42.805,6.029,13.2987,4.60009,2470.544,2021-10-19T10:39:25Z
2021-10-19T08:41:04Z,42.805,6.029,13.2993,4.60009,2470.567,2021-10-19T10:42:28Z
2021-10-19T08:44:07Z,42.805,6.029,13.2994,4.60007,2470.53,2021-10-19T10:45:31Z
2021-10-19T08:47:10Z,42.805,6.029,13.2994,4.60008,2470.52,2021-10-19T10:48:34Z
2021-10-19T08:50:14Z,42.805,6.029,13.2995,4.60014,2470.53,2021-10-19T10:51:37Z
2021-10-19T08:53:17Z,42.805,6.029,13.2989,4.60010,2470.544,2021-10-19T10:54:41Z
2021-10-19T08:56:20Z,42.805,6.029,13.2991,4.60014,2470.507,2021-10-19T10:57:44Z
2021-10-19T08:59:23Z,42.805,6.029,13.2990,4.60012,2470.53,2021-10-19T11:00:47Z
2021-10-19T09:02:26Z,42.805,6.029,13.2995,4.60009,2470.567,2021-10-19T11:03:50Z
2021-10-19T09:05:29Z,42.805,6.029,13.2991,4.60016,2470.507,2021-10-19T11:06:53Z
2021-10-19T09:08:32Z,42.805,6.029,13.2993,4.60012,2470.6,2021-10-19T11:09:56Z
2021-10-19T09:11:35Z,42.805,6.029,13.2990,4.60010,2470.567,2021-10-19T11:12:59Z
2021-10-19T09:14:39Z,42.805,6.029,13.2992,4.60009,2470.52,2021-10-19T11:16:02Z
2021-10-19T09:17:42Z,42.805,6.029,13.2992,4.60007,2470.567,2021-10-19T11:19:06Z
2021-10-19T09:20:45Z,42.805,6.029,13.2990,4.60017,2470.553,2021-10-19T11:22:09Z
2021-10-19T09:23:48Z,42.805,6.029,13.2992,4.60008,2470.53,2021-10-19T11:25:12Z
2021-10-19T09:26:51Z,42.805,6.029,13.2992,4.60007,2470.483,2021-10-19T11:28:15Z
2021-10-19T09:29:54Z,42.805,6.029,13.2993,4.60008,2470.483,2021-10-19T11:31:18Z
2021-10-19T09:32:57Z,42.805,6.029,13.2990,4.60009,2470.483,2021-10-19T11:34:21Z
2021-10-19T09:36:00Z,42.805,6.029,13.2992,4.60007,2470.483,2021-10-19T11:37:24Z
2021-10-19T09:39:04Z,42.805,6.029,13.2992,4.60009,2470.483,2021-10-19T11:40:27Z
2021-10-19T09:42:07Z,42.805,6.029,13.2992,4.60008,2470.483,2021-10-19T11:43:31Z
2021-10-19T09:45:10Z,42.805,6.029,13.2990,4.60006,2470.483,2021-10-19T11:46:34Z
2021-10-19T09:48:13Z,42.805,6.029,13.2990,4.60008,2470.497,2021-10-19T11:49:37Z
2021-10-19T09:51:16Z,42.805,6.029,13.2992,4.60007,2470.52,2021-10-19T11:52:40Z
2021-10-19T09:54:19Z,42.805,6.029,13.2991,4.60008,2470.52,2021-10-19T11:55:43Z
2021-10-19T09:57:22Z,42.805,6.029,13.2991,4.60006,2470.483,2021-10-19T11:58:46Z
2021-10-19T10:00:25Z,42.805,6.029,13.2991,4.60006,2470.507,2021-10-19T12:01:49Z
2021-10-19T10:03:29Z,42.805,6.029,13.2986,4.60006,2470.497,2021-10-19T12:04:52Z
2021-10-19T10:06:32Z,42.805,6.029,13.2990,4.60009,2470.483,2021-10-19T12:07:56Z
2021-10-19T10:09:35Z,42.805,6.029,13.2990,4.60006,2470.507,2021-10-19T12:10:59Z
2021-10-19T10:12:38Z,42.805,6.029,13.2993,4.60006,2470.474,2021-10-19T12:14:02Z
2021-10-19T10:15:41Z,42.805,6.029,13.2992,4.60006,2470.483,2021-10-19T12:17:05Z
2021-10-19T10:18:44Z,42.805,6.029,13.2991,4.60006,2470.497,2021-10-19T12:20:08Z
2021-10-19T10:21:47Z,42.805,6.029,13.2990,4.60008,2470.497,2021-10-19T12:23:11Z
2021-10-19T10:24:50Z,42.805,6.029,13.2992,4.60008,2470.46,2021-10-19T12:26:14Z
2021-10-19T10:27:54Z,42.805,6.029,13.2991,4.60008,2470.474,2021-10-19T12:29:17Z
2021-10-19T10:30:57Z,42.805,6.029,13.2991,4.60009,2470.437,2021-10-19T12:32:21Z
2021-10-19T10:34:00Z,42.805,6.029,13.2991,4.60007,2470.497,2021-10-19T12:35:24Z
2021-10-19T10:37:03Z,42.805,6.029,13.2990,4.60007,2470.497,2021-10-19T12:38:27Z
2021-10-19T10:40:06Z,42.805,6.029,13.2991,4.60007,2470.474,2021-10-19T12:41:30Z
2021-10-19T10:43:09Z,42.805,6.029,13.2989,4.60009,2470.45,2021-10-19T12:44:33Z
2021-10-19T10:46:12Z,42.805,6.029,13.2991,4.60007,2470.483,2021-10-19T12:47:36Z
2021-10-19T10:49:16Z,42.805,6.029,13.2989,4.60007,2470.474,2021-10-19T12:50:39Z
2021-10-19T10:52:19Z,42.805,6.029,13.2993,4.60009,2470.497,2021-10-19T12:53:42Z
2021-10-19T10:55:22Z,42.805,6.029,13.2990,4.60009,2470.46,2021-10-19T12:56:46Z
2021-10-19T10:58:25Z,42.805,6.029,13.2993,4.60009,2470.483,2021-10-19T12:59:49Z
2021-10-19T11:01:28Z,42.805,6.029,13.2991,4.60010,2470.46,2021-10-19T13:02:52Z
2021-10-19T11:04:31Z,42.805,6.029,13.2990,4.60008,2470.437,2021-10-19T13:05:55Z
2021-10-19T11:07:34Z,42.805,6.029,13.2987,4.60008,2470.474,2021-10-19T13:08:58Z
2021-10-19T11:10:37Z,42.805,6.029,13.2990,4.60007,2470.46,2021-10-19T13:12:01Z
2021-10-19T11:13:41Z,42.805,6.029,13.2990,4.60009,2470.437,2021-10-19T13:15:04Z
2021-10-19T11:16:44Z,42.805,6.029,13.2993,4.60006,2470.45,2021-10-19T13:18:07Z
2021-10-19T11:19:47Z,42.805,6.029,13.2996,4.60007,2470.437,2021-10-19T13:21:11Z
2021-10-19T11:22:50Z,42.805,6.029,13.2993,4.60007,2470.427,2021-10-19T13:24:14Z
2021-10-19T11:25:53Z,42.805,6.029,13.2991,4.60008,2470.437,2021-10-19T13:27:17Z
2021-10-19T11:28:56Z,42.805,6.029,13.2990,4.60014,2470.437,2021-10-19T13:30:20Z
2021-10-19T11:31:59Z,42.805,6.029,13.2989,4.60009,2470.427,2021-10-19T13:33:23Z
2021-10-19T11:35:02Z,42.805,6.029,13.2989,4.60007,2470.474,2021-10-19T13:36:26Z
2021-10-19T11:38:06Z,42.805,6.029,13.2993,4.60008,2470.474,2021-10-19T13:39:29Z
2021-10-19T11:41:09Z,42.805,6.029,13.2992,4.60011,2470.413,2021-10-19T13:42:33Z
2021-10-19T11:44:12Z,42.805,6.029,13.2991,4.60008,2470.437,2021-10-19T13:45:36Z
2021-10-19T11:47:15Z,42.805,6.029,13.2989,4.60007,2470.437,2021-10-19T13:48:39Z
2021-10-19T11:50:18Z,42.805,6.029,13.2992,4.60009,2470.474,2021-10-19T13:51:42Z
2021-10-19T11:53:21Z,42.805,6.029,13.2990,4.60007,2470.45,2021-10-19T13:54:45Z
2021-10-19T11:56:24Z,42.805,6.029,13.2990,4.60007,2470.437,2021-10-19T13:57:48Z
2021-10-19T11:59:27Z,42.805,6.029,13.2991,4.60008,2470.45,2021-10-19T14:00:51Z
2021-10-19T12:02:31Z,42.805,6.029,13.2991,4.60008,2470.437,2021-10-19T14:03:54Z
2021-10-19T12:05:34Z,42.805,6.029,13.2992,4.60009,2470.413,2021-10-19T14:06:58Z
2021-10-19T12:08:37Z,42.805,6.029,13.2993,4.60007,2470.437,2021-10-19T14:10:01Z
2021-10-19T12:11:40Z,42.805,6.029,13.2991,4.60008,2470.413,2021-10-19T14:13:04Z
2021-10-19T12:14:43Z,42.805,6.029,13.2993,4.60006,2470.427,2021-10-19T14:16:07Z
2021-10-19T12:17:46Z,42.805,6.029,13.2991,4.60008,2470.437,2021-10-19T14:19:10Z
2021-10-19T12:20:49Z,42.805,6.029,13.2993,4.60010,2470.413,2021-10-19T14:22:13Z
2021-10-19T12:23:53Z,42.805,6.029,13.2991,4.60009,2470.437,2021-10-19T14:25:16Z
2021-10-19T12:26:56Z,42.805,6.029,13.2993,4.60009,2470.413,2021-10-19T14:28:19Z
2021-10-19T12:29:59Z,42.805,6.029,13.2992,4.60007,2470.437,2021-10-19T14:31:23Z
2021-10-19T12:33:02Z,42.805,6.029,13.2990,4.60007,2470.413,2021-10-19T14:34:26Z
2021-10-19T12:36:05Z,42.805,6.029,13.2991,4.60008,2470.404,2021-10-19T14:37:29Z
2021-10-19T12:39:08Z,42.805,6.029,13.2993,4.60009,2470.413,2021-10-19T14:40:32Z
2021-10-19T12:42:11Z,42.805,6.029,13.2994,4.60009,2470.413,2021-10-19T14:43:35Z
2021-10-19T12:45:14Z,42.805,6.029,13.2992,4.60014,2470.413,2021-10-19T14:46:38Z
2021-10-19T12:48:18Z,42.805,6.029,13.2991,4.60009,2470.437,2021-10-19T14:49:41Z
2021-10-19T12:51:21Z,42.805,6.029,13.2990,4.60008,2470.39,2021-10-19T14:52:44Z
2021-10-19T12:54:24Z,42.805,6.029,13.2997,4.60009,2470.413,2021-10-19T14:55:48Z
2021-10-19T12:57:27Z,42.805,6.029,13.3000,4.60007,2470.404,2021-10-19T14:58:51Z
2021-10-19T13:00:30Z,42.805,6.029,13.2990,4.60007,2470.45,2021-10-19T15:01:54Z
2021-10-19T13:03:33Z,42.805,6.029,13.2994,4.60010,2470.427,2021-10-19T15:04:57Z
2021-10-19T13:06:36Z,42.805,6.029,13.2991,4.60009,2470.39,2021-10-19T15:08:00Z
2021-10-19T13:09:39Z,42.805,6.029,13.2991,4.60009,2470.437,2021-10-19T15:11:03Z
2021-10-19T13:12:43Z,42.805,6.029,13.2991,4.60016,2470.427,2021-10-19T15:14:06Z
2021-10-19T13:15:46Z,42.805,6.029,13.2991,4.60010,2470.45,2021-10-19T15:17:10Z
2021-10-19T13:18:49Z,42.805,6.029,13.2992,4.60008,2470.39,2021-10-19T15:20:13Z
2021-10-19T13:21:52Z,42.805,6.029,13.2994,4.60009,2470.39,2021-10-19T15:23:16Z
2021-10-19T13:24:55Z,42.805,6.029,13.2997,4.60008,2470.427,2021-10-19T15:26:19Z
2021-10-19T13:27:58Z,42.805,6.029,13.2997,4.60008,2470.413,2021-10-19T15:29:22Z
2021-10-19T13:31:01Z,42.805,6.029,13.2991,4.60007,2470.413,2021-10-19T15:32:25Z
2021-10-19T13:34:04Z,42.805,6.029,13.2990,4.60007,2470.427,2021-10-19T15:35:28Z
2021-10-19T13:37:08Z,42.805,6.029,13.2990,4.60008,2470.427,2021-10-19T15:38:31Z
2021-10-19T13:40:11Z,42.805,6.029,13.2996,4.60009,2470.413,2021-10-19T15:41:35Z
2021-10-19T13:43:14Z,42.805,6.029,13.2994,4.60011,2470.39,2021-10-19T15:44:38Z
2021-10-19T13:46:17Z,42.805,6.029,13.2991,4.60010,2470.437,2021-10-19T15:47:41Z
2021-10-19T13:49:20Z,42.805,6.029,13.2993,4.60009,2470.437,2021-10-19T15:50:44Z
2021-10-19T13:52:23Z,42.805,6.029,13.2991,4.60009,2470.437,2021-10-19T15:53:47Z
2021-10-19T13:55:26Z,42.805,6.029,13.2996,4.60008,2470.437,2021-10-19T15:56:50Z
2021-10-19T13:58:30Z,42.805,6.029,13.2993,4.60010,2470.39,2021-10-19T15:59:53Z
2021-10-19T14:01:33Z,42.805,6.029,13.2994,4.60008,2470.39,2021-10-19T16:02:56Z
2021-10-19T14:04:36Z,42.805,6.029,13.2993,4.60008,2470.39,2021-10-19T16:06:00Z
2021-10-19T14:07:39Z,42.805,6.029,13.2995,4.60011,2470.427,2021-10-19T16:09:03Z
2021-10-19T14:10:42Z,42.805,6.029,13.2995,4.60008,2470.413,2021-10-19T16:12:06Z
2021-10-19T14:13:45Z,42.805,6.029,13.2992,4.60007,2470.45,2021-10-19T16:15:09Z
2021-10-19T14:16:48Z,42.805,6.029,13.2991,4.60009,2470.45,2021-10-19T16:18:12Z
2021-10-19T14:19:51Z,42.805,6.029,13.2993,4.60009,2470.423,2021-10-19T16:21:15Z
2021-10-19T14:22:55Z,42.805,6.029,13.2991,4.60009,2470.413,2021-10-19T16:24:18Z
2021-10-19T14:25:58Z,42.805,6.029,13.2990,4.60008,2470.46,2021-10-19T16:27:21Z
2021-10-19T14:29:01Z,42.805,6.029,13.2995,4.60009,2470.437,2021-10-19T16:30:25Z
2021-10-19T14:32:04Z,42.805,6.029,13.2994,4.60009,2470.437,2021-10-19T16:33:28Z
2021-10-19T14:35:07Z,42.805,6.029,13.2991,4.60009,2470.437,2021-10-19T16:36:31Z
2021-10-19T14:38:10Z,42.805,6.029,13.2990,4.60014,2470.46,2021-10-19T16:39:34Z
2021-10-19T14:41:13Z,42.805,6.029,13.2996,4.60008,2470.45,2021-10-19T16:42:37Z
2021-10-19T14:44:16Z,42.805,6.029,13.2988,4.60009,2470.413,2021-10-19T16:45:40Z
2021-10-19T14:47:20Z,42.805,6.029,13.2996,4.60009,2470.437,2021-10-19T16:48:43Z
2021-10-19T14:50:23Z,42.805,6.029,13.2991,4.60009,2470.45,2021-10-19T16:51:46Z
2021-10-19T14:53:26Z,42.805,6.029,13.2990,4.60011,2470.46,2021-10-19T16:54:50Z
2021-10-19T14:56:29Z,42.805,6.029,13.2991,4.60010,2470.437,2021-10-19T16:57:53Z
2021-10-19T14:59:32Z,42.805,6.029,13.2996,4.60011,2470.437,2021-10-19T17:00:56Z
2021-10-19T15:02:35Z,42.805,6.029,13.2988,4.60009,2470.474,2021-10-19T17:03:59Z